Regional Weather Roundup
Issued by NWS

Home | Current Version | Previous Version | Graphics & Text | Print | Product List | Glossary On
Versions: 1 2 3 4 5 6 7 8 9 10 11 12 13 14 15 16 17 18 19 20 21 22 23 24 25 26 27 28 29 30 31 32 33 34 35 36 37 38 39 40 41 42 43 44 45 46 47 48 49 50
000
ASUS43 KOAX 041702
RWRNE

WEATHER ROUNDUP FOR NEBRASKA
NATIONAL WEATHER SERVICE OMAHA NE
1200 PM CDT WED MAY 04 2016

NOTES: SATELLITE DATA IS BEING USED TO AUGMENT CLOUD COVER ABOVE
       12000 FEET.
       "FAIR" INDICATES FEW OR NO CLOUDS BELOW 12,000 FEET WITH NO
       SIGNIFICANT WEATHER AND/OR OBSTRUCTIONS TO VISIBILITY.

  * THESE STATIONS DO NOT REPORT WEATHER SUCH AS RAIN...SNOW OR FOG.

NEZ001>004-019>022-054>056-041800-
NEBRASKA PANHANDLE

CITY           SKY/WX    TMP DP  RH WIND       PRES   REMARKS
SCOTTSBLUFF    SUNNY     68  41  37 CALM      30.20S
ALLIANCE       SUNNY     68  39  34 CALM      30.19S
CHADRON        SUNNY     70  42  36 CALM      30.16F
KIMBALL        SUNNY     66  36  33 CALM      30.24S
SIDNEY         SUNNY     70  38  31 CALM      30.22S
$$

NEZ057>060-069>072-079>082-041800-
SOUTHWEST NEBRASKA

CITY           SKY/WX    TMP DP  RH WIND       PRES   REMARKS
NORTH PLATTE   SUNNY     68  43  40 VRB3      30.15S
IMPERIAL       SUNNY     70  40  33 N9        30.18F
LEXINGTON      SUNNY     65  37  34 N9G17     30.15S
MCCOOK         SUNNY     70  44  39 NE7       30.16S
$$

NEZ005>010-023>029-035>040-094-041800-
NORTH CENTRAL NEBRASKA

CITY           SKY/WX    TMP DP  RH WIND       PRES   REMARKS
VALENTINE      SUNNY     67  31  26 MISG      30.15S
AINSWORTH      SUNNY     64  31  29 N8G18     30.15S
BROKEN BOW     SUNNY     66  38  35 N17       30.14R
ORD            SUNNY     64  36  35 N12       30.12R
$$

NEZ041-046>049-061>064-073>077-083>087-041800-
SOUTH CENTRAL NEBRASKA

CITY           SKY/WX    TMP DP  RH WIND       PRES   REMARKS
GRAND ISLAND   SUNNY     63  33  32 N13       30.13R
AURORA         SUNNY     64  33  31 N16       30.12R
HASTINGS       SUNNY     63  36  36 N15G24    30.12R
KEARNEY *      SUNNY     64  34  32 N15       30.14S
YORK           SUNNY     63  37  39 N12G20    30.11R
$$

NEZ011>018-030>034-042>045-041800-
NORTHEAST NEBRASKA

CITY           SKY/WX    TMP DP  RH WIND       PRES   REMARKS
NORFOLK        SUNNY     62  36  37 NW15      30.10R
ALBION         SUNNY     61  36  39 N13G18    30.12R
BLAIR          SUNNY     61  41  48 NW13G22   30.07R
COLUMBUS *     SUNNY     63  36  36 N10G21    30.11S
FREMONT        SUNNY     62  36  37 N14       30.08S
TEKAMAH        SUNNY     62  42  47 N17       30.08R
$$

NEZ050>053-065>068-078-088>093-041800-
SOUTHEAST NEBRASKA

CITY           SKY/WX    TMP DP  RH WIND       PRES   REMARKS
LINCOLN        SUNNY     66  36  32 N17G24    30.09R
OMAHA EPPLEY   MOSUNNY   64  41  42 N16       30.05S
BEATRICE       SUNNY     63  36  36 N15G24    30.08R
FALLS CITY     SUNNY     65  40  39 N15G21    30.03R
$$

NEZ044-045-051>053-067-041800-
OMAHA AREA

CITY           SKY/WX    TMP DP  RH WIND       PRES   REMARKS
OMAHA EPPLEY   MOSUNNY   64  41  42 N16       30.05S
BLAIR          SUNNY     61  41  48 NW13G22   30.07R
FREMONT        SUNNY     62  36  37 N14       30.08S
OFFUTT AFB     SUNNY     62  39  42 N16G23    30.05R
$$



USA.gov is the U.S. government's official web portal to all federal, state and local government web resources and services.